Retour au catalogue

ELEKTRON 3 DEB

ActifUNKNOWN
NORAD 831·DEBRIS·🇷🇺 Russia

Lancé Jul 10, 1964 depuis Baikonur Cosmodrome

Loading…

Prochains Passages (prochaines 24 heures)

TLE

FraisSource: Space-Track

Époque: Sep 13, 2026, 10:58 UTC

1 00831U 64038C   26256.45739932  .00009217  00000-0  76077-3 0  9995
2 00831  60.6632 319.5181 1233512  73.1716 300.0659 12.85659963377270

Suivez ELEKTRON 3 DEB en temps réel avec AllMySat

Download on the App Store